Simultaneous Nadir Overpasses (SNOs) Predictions

Prediction of SNOs between FY3D and METOP-C Satellite Orbit:

Table of predicted SNOs for the next 14.0 days since TLE Epoch: 10/26/2024
Index Date (FY3D) Time (FY3D) Lat,Lon (FY3D) SZA (FY3D ) Date (METOP-C) Time (METOP-C) Lat,Lon (METOP-C) SZA (METOP-C ) Distance(km) Time Diff (sec)
1 10/26/2024 03:41:50 76.24, 125.57 88.80 10/26/2024 03:42:35 76.22, 125.53 88.78 2.30 45
2 10/26/2024 04:32:35 -76.24, -67.14 91.19 10/26/2024 04:33:17 -76.21, -67.17 91.22 3.61 42
3 10/26/2024 05:23:19 76.23, 100.23 88.81 10/26/2024 05:23:55 76.24, 100.29 88.84 2.67 36
4 10/26/2024 06:14:04 -76.23, -92.48 91.17 10/26/2024 06:14:37 -76.24, -92.41 91.16 1.95 33
5 10/26/2024 07:04:49 76.22, 74.89 88.83 10/26/2024 07:05:17 76.23, 74.89 88.84 1.19 28
6 10/26/2024 07:55:34 -76.22,-117.81 91.16 10/26/2024 07:55:59 -76.22,-117.81 91.16 0.26 25
7 10/26/2024 08:46:19 76.21, 49.55 88.84 10/26/2024 08:46:39 76.21, 49.49 88.85 1.73 20
8 10/26/2024 09:37:04 -76.21,-143.15 91.14 10/26/2024 09:37:21 -76.20,-143.21 91.15 1.85 17
9 10/26/2024 10:27:49 76.20, 24.21 88.86 10/26/2024 10:28:01 76.19, 24.09 88.85 3.45 12
10 10/26/2024 11:18:34 -76.20,-168.49 91.13 10/26/2024 11:18:42 -76.23,-168.45 91.10 3.30 8
11 10/26/2024 12:09:19 76.19, -1.12 88.87 10/26/2024 12:09:22 76.22, -1.16 88.91 3.70 3
12 10/26/2024 13:00:04 -76.19, 166.17 91.12 10/26/2024 13:00:04 -76.21, 166.15 91.10 2.34 0
13 10/26/2024 13:50:50 76.22, -26.63 88.93 10/26/2024 13:50:44 76.20, -26.56 88.91 2.93 6
14 10/26/2024 14:41:34 -76.18, 140.83 91.10 10/26/2024 14:41:26 -76.19, 140.74 91.09 2.67 8
15 10/26/2024 15:32:20 76.21, -51.97 88.94 10/26/2024 15:32:06 76.18, -51.96 88.91 3.19 14
16 10/26/2024 16:23:04 -76.17, 115.49 91.09 10/26/2024 16:22:48 -76.18, 115.34 91.09 3.98 16
17 10/26/2024 17:13:50 76.20, -77.30 88.96 10/26/2024 17:13:27 76.21, -77.20 88.97 2.88 23
18 10/26/2024 18:04:35 -76.21, 89.99 91.03 10/26/2024 18:04:09 -76.21, 90.10 91.03 2.97 26
19 10/26/2024 18:55:20 76.19,-102.64 88.97 10/26/2024 18:54:49 76.19,-102.61 88.97 1.02 31
20 10/26/2024 19:46:05 -76.20, 64.65 91.01 10/26/2024 19:45:31 -76.19, 64.70 91.03 1.73 34
21 10/26/2024 20:36:50 76.18,-127.98 88.99 10/26/2024 20:36:11 76.18,-128.01 88.98 1.05 39
22 10/26/2024 21:27:35 -76.19, 39.31 91.00 10/26/2024 21:26:53 -76.17, 39.30 91.02 2.08 42
23 10/26/2024 22:18:20 76.17,-153.32 89.00 10/26/2024 22:17:33 76.16,-153.41 88.98 2.92 47
24 10/26/2024 23:09:05 -76.18, 13.97 90.98 10/26/2024 23:08:14 -76.20, 14.06 90.97 3.06 51
25 10/26/2024 23:59:50 76.16,-178.66 89.02 10/26/2024 23:58:54 76.19,-178.65 89.04 2.47 56
26 10/27/2024 00:50:35 -76.17, -11.37 90.97 10/27/2024 00:49:36 -76.18, -11.35 90.96 1.35 59
27 10/27/2024 01:41:20 76.15, 156.00 89.03 10/27/2024 01:40:16 76.17, 155.95 89.04 2.13 64
28 10/27/2024 02:32:05 -76.16, -36.70 90.95 10/27/2024 02:30:58 -76.16, -36.75 90.96 1.18 67
29 10/27/2024 03:22:50 76.14, 130.66 89.05 10/27/2024 03:21:38 76.15, 130.54 89.05 3.21 72
30 10/27/2024 04:13:35 -76.15, -62.04 90.94 10/27/2024 04:12:20 -76.14, -62.15 90.95 2.84 75
31 10/27/2024 05:04:15 75.91, 106.12 88.86 10/27/2024 05:03:05 75.90, 104.36 88.80 47.78 70
32 10/27/2024 05:54:57 -75.78, -86.12 91.26 10/27/2024 05:53:49 -75.80, -88.63 91.29 68.68 68



Historial Predications of SNOs between FY3D and METOP-C
